Regional Weather Roundup
Issued by NWS

Home | Current Version | Previous Version | Text Only | Print | Product List | Glossary On
Versions: 1 2 3 4 5 6 7 8 9 10 11 12 13 14 15 16 17 18 19 20 21 22 23 24 25 26 27
000
ASUS42 KTBW 170716
RWRFL
FLORIDA REGIONAL WEATHER ROUNDUP
NATIONAL WEATHER SERVICE TAMPA BAY RUSKIN FL
200 AM EST TUE JAN 17 2017

NOTE: "FAIR" INDICATES FEW OR NO CLOUDS BELOW 12,000 FEET WITH NO
SIGNIFICANT WEATHER AND/OR OBSTRUCTIONS TO VISIBILITY.

FLZ001>010-012>015-112-114-115-170800-
PANHANDLE FLORIDA

CITY           SKY/WX    TMP DP  RH WIND       PRES   REMARKS
PENSACOLA      CLOUDY    68  65  90 SE7       30.16S
PENSACOLA NAS  MOCLDY    68  65  90 SE7       30.15S
MILTON NAS       N/A    N/A N/A N/A MISG      30.17S
CRESTVIEW      CLOUDY    55  53  93 CALM      30.19F
DUKE FIELD     FAIR      62  59  88 SE6       30.17S
VALPARAISO     PTCLDY    63  60  91 E3        30.18F
MARY ESTHER    PTCLDY    66  64  94 E8        30.16S
TRI COUNTY     FAIR      56  55  97 CALM      30.20F
PANAMA CITY    FAIR      56  53  90 CALM      30.18F
TYNDALL AFB    PTCLDY    62  58  87 E3        30.19F
APALACHICOLA   PTCLDY    63  61  93 E7        30.19F

STATION/POSITION SKY/WX   TEMP    WIND        PRES    WAVE   SWELL
                          AIR SEA DIR/SP/G            HT/PER HT/PER
                          (F)     (DEG/KT/KT) (MB)    (FT/S) (FT/S)
30.1N   87.6W              69 66  160/  8/  8 1020.8F   5/ 7   5/ 7
28.8N   86.0W              75 75              1021.4F   5/ 6
PANAMA CITY BEAC                  130/ 10/ 10 1022.3F
TOWER C                    70     130/ 16/ 16 1022.7F
28.5N   84.5W              72 72  100/ 12/ 14 1022.3S   3/ 7   2/ 7

$$
FLZ011-016>038-118-127-128-134-139-239-170800-
NORTH FLORIDA

CITY           SKY/WX    TMP DP  RH WIND       PRES   REMARKS
MARIANNA       PTCLDY    56  55  97 CALM      30.20F
TALLAHASSEE    NOT AVBL
PERRY          PTCLDY    53  52  96 CALM      30.24S
CROSS CITY     PTCLDY    54  52  94 CALM      30.24R
LAKE CITY      FAIR      55  55 100 CALM      30.25S
GAINESVILLE    CLEAR     54  51  90 CALM      30.24S
MAYPORT NAS    CLOUDY    63  61  93 CALM      30.24F
JACKSONVILLE   FOG       56  56 100 CALM      30.24F VSB 1/8
JAX NAS        PTCLDY    61  59  93 CALM      30.25F
FERNANDINA BEA CLOUDY    59  59 100 CALM      30.24S VSB 1/2
ST AUGUSTINE   CLOUDY    59  56  89 CALM      30.25F

STATION/POSITION SKY/WX   TEMP    WIND        PRES    WAVE   SWELL
                          AIR SEA DIR/SP/G            HT/PER HT/PER
                          (F)     (DEG/KT/KT) (MB)    (FT/S) (FT/S)
SHELL POINT      NOT AVBL
KEATON BEACH               62      90/  5/  7 1023.0F
CEDAR KEY                  65      80/  4/  5 1023.8S
FERNANDINA                           CALM     1024.9F
30.7N   81.3W                 61                N/A     3/11   2/11
MAYPORT          NOT AVBL
31.4N   80.9W              60 59   80/  4/  4 1024.2F   3/ 6   3/ 6
ST AUGUSTINE               65 64   CALM  /  1 1024.6F

$$
FLZ040-043>046-052-053-057-058-063-144-170800-
INTERIOR CENTRAL FLORIDA

CITY           SKY/WX    TMP DP  RH WIND       PRES   REMARKS
OCALA          CLEAR     55  50  82 N3        30.24S
THE VILLAGES     N/A     59  59 100 CALM      30.14S
LEESBURG       CLEAR     61  57  87 E3        30.24F
SANFORD        CLEAR     60  58  92 CALM      30.23F
ORLANDO EXEC   CLEAR     59  57  93 CALM      30.23F
ORLANDO INTL   PTCLDY    60  57  89 E3        30.24F
KISSIMMEE      CLEAR     60  58  92 CALM      30.24F
WINTER HAVEN   CLEAR     60  57  89 CALM      30.24F
LAKELAND       CLEAR     59  59 100 CALM      30.24S
BARTOW         FAIR      57  57 100 CALM      30.23F
OKEECHOBEE     CLEAR     59  57  94 CALM      30.23S

$$
FLZ041-047-054-059-064-141-147-170800-
EAST CENTRAL FLORIDA

CITY           SKY/WX    TMP DP  RH WIND       PRES   REMARKS
DAYTONA BEACH  PTCLDY    56  56 100 CALM      30.24F FOG
JFK SPACE CTR  PTCLDY    56  56  97 CALM      30.22F
CAPE CANAVERAL PTCLDY    59  56  89 SE3       30.22F
PATRICK AFB    CLEAR     67  64  89 CALM      30.23S
MELBOURNE      CLEAR     58  56  93 CALM      30.23S
VERO BEACH     CLEAR     69  62  78 SE8       30.23S
FT PIERCE      PTCLDY    70  63  78 SE10      30.22F
STUART         PTCLDY    73  63  68 SE7       30.24S

STATION/POSITION SKY/WX   TEMP    WIND        PRES    WAVE   SWELL
                          AIR SEA DIR/SP/G            HT/PER HT/PER
                          (F)     (DEG/KT/KT) (MB)    (FT/S) (FT/S)
TRIDENT PIER                       50/  2/  2 1023.9R
28.4N   80.5W                 70                N/A     3/11   2/11
27.5N   80.2W                 77                N/A     5/ 5   2/11

$$
FLZ050-056-061-142-242-148-248-149-249-151-251-155-255-
160-260-170800-
WEST CENTRAL FLORIDA

CITY           SKY/WX    TMP DP  RH WIND       PRES   REMARKS
CRYSTAL RIVER  CLOUDY    63  55  77 CALM      30.23S
BROOKSVILLE    NOT AVBL
ST PETE CLEARW CLOUDY    67  61  81 SE7       30.22S
TAMPA INTL     MOCLDY    69  60  73 E5        30.23S
TAMPA EXEC     PTCLDY    61  57  88 CALM      30.24S
PLANT CITY     CLEAR     61  61 100 CALM      30.25S
MACDILL AFB    PTCLDY    63  62  97 SE7       30.22S
PETER O KNIGHT CLOUDY    68  63  83 E6        30.22F
ST PETERSBURG  PTCLDY    65  62  90 SE6       30.20F
SARASOTA       CLEAR     63  59  87 E7        30.20F
VENICE         FAIR      63  61  94 E8        30.21F

STATION/POSITION SKY/WX   TEMP    WIND        PRES    WAVE   SWELL
                          AIR SEA DIR/SP/G            HT/PER HT/PER
                          (F)     (DEG/KT/KT) (MB)    (FT/S) (FT/S)
27.3N   84.2W                 76                N/A     4/ 4
CLEARWATER BEACH                  120/  8/ 10   N/A
MIDDLE TAMPA BAY                  140/  9/  9 1023.5S
VENICE                     63 66   80/  7/  8 1022.4F

$$
FLZ066-069-070-075>078-162-262-165-265-170800-
SOUTHWEST FLORIDA AND KEYS

CITY           SKY/WX    TMP DP  RH WIND       PRES   REMARKS
PUNTA GORDA    CLEAR     57  56  96 NE3       30.23S FOG
FT MYERS       CLEAR     64  62  93 MISG      30.20S
SOUTHWEST INTL CLEAR     62  60  93 E5        30.21S
NAPLES         CLEAR     65  63  93 E8        30.19F
MARATHON       CLEAR     77  66  68 E9G18     30.17S
KEY WEST NAS   PTCLDY    74  67  78 E16       30.16S
KEY WEST INTL  PTCLDY    76  68  76 E14       30.16F

STATION/POSITION SKY/WX   TEMP    WIND        PRES    WAVE   SWELL
                          AIR SEA DIR/SP/G            HT/PER HT/PER
                          (F)     (DEG/KT/KT) (MB)    (FT/S) (FT/S)
NAPLES                                        1022.4F
26.0N   85.6W              75 76  130/ 16/ 17 1021.1F   5/ 6
DRY TORTUGAS               73      90/ 18/ 19 1021.0F
SAND KEY                   75     130/ 24/ 27 1021.4F
LONG KEY                   74 71  100/ 15/ 16 1022.2F
MOLASSES REEF                     120/ 18       N/A

$$
FLZ067-068-071>074-168-172>174-170800-
SOUTHEAST FLORIDA

CITY           SKY/WX    TMP DP  RH WIND       PRES   REMARKS
W PALM BEACH   MOCLDY    73  63  70 E15       30.22F
FT LAUDER-EXEC CLEAR     71  61  70 SE7       30.20F
FT LAUDERDALE  PTCLDY    73  62  68 SE10      30.20S
POMPANO BEACH  PTCLDY    74  62  66 SE14      30.21S
PEMBROKE PINES PTCLDY    69  61  75 E6        30.22S
OPA LOCKA      CLEAR     68  60  75 CALM      30.21S
MIAMI          PTCLDY    72  62  71 SE5       30.21S
WEST KENDALL   CLEAR     67  62  84 E6        30.20F
HOMESTEAD      PTCLDY    72  67  84 E8        30.19F

STATION/POSITION SKY/WX   TEMP    WIND        PRES    WAVE   SWELL
                          AIR SEA DIR/SP/G            HT/PER HT/PER
                          (F)     (DEG/KT/KT) (MB)    (FT/S) (FT/S)
PORT EVERGLADES            74     110/  4/ 10 1022.9S
VIRGINIA KEY                      110/  9/ 12 1023.2F
LAKE WORTH                        120/ 15/ 18 1022.8F
FOWEY ROCKS                74 76  110/ 17/ 19 1023.1F

$$





USA.gov is the U.S. government's official web portal to all federal, state and local government web resources and services.